Time,TemperatureF,DewpointF,PressureIn,WindDirection,WindDirectionDegrees,WindSpeedMPH,WindSpeedGustMPH,Humidity,HourlyPrecipIn,Conditions,Clouds,dailyrainin,SolarRadiationWatts/m^2,SoftwareType,DateUTC
2013-03-09 00:01:00,32.0,28.0,-100.00,SE,135,1.0,3.0,84,0.00,,,0.00,0.000000,,2013-03-09 09:01:00,
2013-03-09 00:11:00,32.0,28.0,-100.00,SE,135,1.0,3.0,84,0.00,,,0.00,0.000000,,2013-03-09 09:11:00,
2013-03-09 00:21:00,32.0,28.0,-100.00,SE,135,1.0,3.0,84,0.00,,,0.00,0.000000,,2013-03-09 09:21:00,
2013-03-09 00:42:00,34.0,30.0,-100.00,ESE,122,1.0,3.0,85,0.00,,,0.00,0.000000,,2013-03-09 09:42:00,
2013-03-09 00:52:00,34.0,30.0,-100.00,ESE,122,1.0,3.0,85,0.00,,,0.00,0.000000,,2013-03-09 09:52:00,
2013-03-09 01:01:00,34.0,30.0,-100.00,ESE,122,1.0,3.0,85,0.00,,,0.00,0.000000,,2013-03-09 10:01:00,
2013-03-09 01:11:00,34.0,30.0,-100.00,ESE,122,1.0,3.0,85,0.00,,,0.00,0.000000,,2013-03-09 10:11:00,
2013-03-09 01:21:00,34.0,30.0,-100.00,ESE,122,1.0,3.0,85,0.00,,,0.00,0.000000,,2013-03-09 10:21:00,
2013-03-09 01:42:00,32.0,29.0,-100.00,East,81,0.0,1.0,90,0.00,,,0.00,0.000000,,2013-03-09 10:42:00,
2013-03-09 01:52:00,32.0,29.0,-100.00,East,81,0.0,1.0,90,0.00,,,0.00,0.000000,,2013-03-09 10:52:00,
2013-03-09 02:01:00,32.0,29.0,-100.00,East,81,0.0,1.0,90,0.00,,,0.00,0.000000,,2013-03-09 11:01:00,
2013-03-09 02:11:00,32.0,29.0,-100.00,East,81,0.0,1.0,90,0.00,,,0.00,0.000000,,2013-03-09 11:11:00,
2013-03-09 02:21:00,32.0,29.0,-100.00,East,81,0.0,1.0,90,0.00,,,0.00,0.000000,,2013-03-09 11:21:00,
2013-03-09 02:42:00,32.0,31.0,-100.00,North,351,0.0,1.0,97,0.00,,,0.00,0.000000,,2013-03-09 11:42:00,
2013-03-09 02:52:00,32.0,31.0,-100.00,North,351,0.0,1.0,97,0.00,,,0.00,0.000000,,2013-03-09 11:52:00,
2013-03-09 03:01:00,32.0,31.0,-100.00,North,351,0.0,1.0,97,0.00,,,0.00,0.000000,,2013-03-09 12:01:00,
2013-03-09 03:11:00,32.0,31.0,-100.00,North,351,0.0,1.0,97,0.00,,,0.00,0.000000,,2013-03-09 12:11:00,
2013-03-09 03:21:00,32.0,31.0,-100.00,North,351,0.0,1.0,97,0.00,,,0.00,0.000000,,2013-03-09 12:21:00,
2013-03-09 03:42:00,32.0,32.0,-100.00,NE,35,0.0,1.0,99,0.00,,,0.00,0.000000,,2013-03-09 12:42:00,
2013-03-09 03:52:00,32.0,32.0,-100.00,NE,35,0.0,1.0,99,0.00,,,0.00,0.000000,,2013-03-09 12:52:00,
2013-03-09 04:02:00,32.0,32.0,-100.00,NE,35,0.0,1.0,99,0.00,,,0.00,0.000000,,2013-03-09 13:02:00,
2013-03-09 04:11:00,32.0,32.0,-100.00,NE,35,0.0,1.0,99,0.00,,,0.00,0.000000,,2013-03-09 13:11:00,
2013-03-09 04:21:00,32.0,32.0,-100.00,NE,35,0.0,1.0,99,0.00,,,0.00,0.000000,,2013-03-09 13:21:00,
2013-03-09 04:42:00,32.0,32.0,-100.00,North,0,0.0,0.0,100,0.00,,,0.00,0.000000,,2013-03-09 13:42:00,
2013-03-09 04:52:00,32.0,32.0,-100.00,North,0,0.0,0.0,100,0.00,,,0.00,0.000000,,2013-03-09 13:52:00,
2013-03-09 05:01:00,32.0,32.0,-100.00,North,0,0.0,0.0,100,0.00,,,0.00,0.000000,,2013-03-09 14:01:00,
2013-03-09 05:11:00,32.0,32.0,-100.00,North,0,0.0,0.0,100,0.00,,,0.00,0.000000,,2013-03-09 14:11:00,
2013-03-09 05:21:00,32.0,32.0,-100.00,North,0,0.0,0.0,100,0.00,,,0.00,0.000000,,2013-03-09 14:21:00,
2013-03-09 05:42:00,32.0,32.0,-100.00,NNW,335,0.0,0.0,100,0.00,,,0.00,0.000000,,2013-03-09 14:42:00,
2013-03-09 05:52:00,32.0,32.0,-100.00,NNW,335,0.0,0.0,100,0.00,,,0.00,0.000000,,2013-03-09 14:52:00,
2013-03-09 06:01:00,32.0,32.0,-100.00,NNW,335,0.0,0.0,100,0.00,,,0.00,0.000000,,2013-03-09 15:01:00,
2013-03-09 06:11:00,32.0,32.0,-100.00,NNW,335,0.0,0.0,100,0.00,,,0.00,0.000000,,2013-03-09 15:11:00,
2013-03-09 06:21:00,32.0,32.0,-100.00,NNW,335,0.0,0.0,100,0.00,,,0.00,0.000000,,2013-03-09 15:21:00,
2013-03-09 06:42:00,32.0,32.0,-100.00,NE,47,0.0,0.0,100,0.00,,,0.00,0.000000,,2013-03-09 15:42:00,
2013-03-09 06:52:00,32.0,32.0,-100.00,NE,47,0.0,0.0,100,0.00,,,0.00,0.000000,,2013-03-09 15:52:00,
2013-03-09 07:01:00,32.0,32.0,-100.00,NE,47,0.0,0.0,100,0.00,,,0.00,0.000000,,2013-03-09 16:01:00,
2013-03-09 07:11:00,32.0,32.0,-100.00,NE,47,0.0,0.0,100,0.00,,,0.00,0.000000,,2013-03-09 16:11:00,
2013-03-09 07:21:00,32.0,32.0,-100.00,NE,47,0.0,0.0,100,0.00,,,0.00,0.000000,,2013-03-09 16:21:00,
2013-03-09 07:42:00,32.0,32.0,-100.00,ENE,61,0.0,0.0,100,0.00,,,0.00,0.000000,,2013-03-09 16:42:00,
2013-03-09 07:52:00,32.0,32.0,-100.00,ENE,61,0.0,0.0,100,0.00,,,0.00,0.000000,,2013-03-09 16:52:00,
2013-03-09 08:01:00,32.0,32.0,-100.00,ENE,61,0.0,0.0,100,0.00,,,0.00,0.000000,,2013-03-09 17:01:00,
2013-03-09 08:11:00,32.0,32.0,-100.00,ENE,61,0.0,0.0,100,0.00,,,0.00,0.000000,,2013-03-09 17:11:00,
2013-03-09 08:21:00,32.0,32.0,-100.00,ENE,61,0.0,0.0,100,0.00,,,0.00,0.000000,,2013-03-09 17:21:00,
2013-03-09 08:42:00,32.0,32.0,-100.00,East,93,0.0,0.0,100,0.00,,,0.00,3.000000,,2013-03-09 17:42:00,
2013-03-09 08:52:00,32.0,32.0,-100.00,East,93,0.0,0.0,100,0.00,,,0.00,3.000000,,2013-03-09 17:52:00,
2013-03-09 09:01:00,32.0,32.0,-100.00,East,93,0.0,0.0,100,0.00,,,0.00,3.000000,,2013-03-09 18:01:00,
2013-03-09 09:11:00,32.0,32.0,-100.00,East,93,0.0,0.0,100,0.00,,,0.00,3.000000,,2013-03-09 18:11:00,
2013-03-09 09:21:00,32.0,32.0,-100.00,East,93,0.0,0.0,100,0.00,,,0.00,3.000000,,2013-03-09 18:21:00,
2013-03-09 09:42:00,32.0,32.0,-100.00,ENE,71,0.0,0.0,99,0.01,,,0.01,14.000000,,2013-03-09 18:42:00,
2013-03-09 09:52:00,32.0,32.0,-100.00,ENE,71,0.0,0.0,99,0.01,,,0.01,14.000000,,2013-03-09 18:52:00,
2013-03-09 10:01:00,32.0,32.0,-100.00,ENE,71,0.0,0.0,99,0.01,,,0.01,14.000000,,2013-03-09 19:01:00,
2013-03-09 10:11:00,32.0,32.0,-100.00,ENE,71,0.0,0.0,99,0.01,,,0.01,14.000000,,2013-03-09 19:11:00,
2013-03-09 10:21:00,32.0,32.0,-100.00,ENE,71,0.0,0.0,99,0.01,,,0.01,14.000000,,2013-03-09 19:21:00,
2013-03-09 10:42:00,34.0,33.0,-100.00,NE,40,0.0,0.0,98,0.02,,,0.03,27.000000,,2013-03-09 19:42:00,
2013-03-09 10:52:00,34.0,33.0,-100.00,NE,40,0.0,0.0,98,0.02,,,0.03,27.000000,,2013-03-09 19:52:00,
2013-03-09 11:01:00,34.0,33.0,-100.00,NE,40,0.0,0.0,98,0.02,,,0.03,27.000000,,2013-03-09 20:01:00,
2013-03-09 11:11:00,34.0,33.0,-100.00,NE,40,0.0,0.0,98,0.02,,,0.03,27.000000,,2013-03-09 20:11:00,
2013-03-09 11:21:00,34.0,33.0,-100.00,NE,40,0.0,0.0,98,0.02,,,0.03,27.000000,,2013-03-09 20:21:00,
2013-03-09 11:52:00,34.0,32.0,-100.00,NNE,24,0.0,2.0,94,-99.99,,,0.01,59.000000,,2013-03-09 20:52:00,
2013-03-09 12:01:00,34.0,32.0,-100.00,NNE,24,0.0,2.0,94,-99.99,,,0.01,59.000000,,2013-03-09 21:01:00,
2013-03-09 12:11:00,34.0,32.0,-100.00,NNE,24,0.0,2.0,94,-99.99,,,0.01,59.000000,,2013-03-09 21:11:00,
2013-03-09 12:21:00,34.0,32.0,-100.00,NNE,24,0.0,2.0,94,-99.99,,,0.01,59.000000,,2013-03-09 21:21:00,
2013-03-09 12:52:00,36.0,34.0,-100.00,North,5,0.0,2.0,94,-99.99,,,0.00,109.000000,,2013-03-09 21:52:00,
2013-03-09 13:01:00,36.0,34.0,-100.00,North,5,0.0,2.0,94,-99.99,,,0.00,109.000000,,2013-03-09 22:01:00,
2013-03-09 13:11:00,36.0,34.0,-100.00,North,5,0.0,2.0,94,-99.99,,,0.00,109.000000,,2013-03-09 22:11:00,
2013-03-09 13:21:00,36.0,34.0,-100.00,North,5,0.0,2.0,94,-99.99,,,0.00,109.000000,,2013-03-09 22:21:00,
2013-03-09 13:42:00,36.0,34.0,-100.00,East,80,0.0,3.0,94,0.05,,,0.05,127.000000,,2013-03-09 22:42:00,
2013-03-09 13:52:00,36.0,34.0,-100.00,East,80,0.0,3.0,94,0.05,,,0.05,127.000000,,2013-03-09 22:52:00,
2013-03-09 14:01:00,36.0,34.0,-100.00,East,80,0.0,3.0,94,0.05,,,0.05,127.000000,,2013-03-09 23:01:00,
2013-03-09 14:11:00,36.0,34.0,-100.00,East,80,0.0,3.0,94,0.05,,,0.05,127.000000,,2013-03-09 23:11:00,
2013-03-09 14:21:00,36.0,34.0,-100.00,East,80,0.0,3.0,94,0.05,,,0.05,127.000000,,2013-03-09 23:21:00,
2013-03-09 14:42:00,36.0,34.0,-100.00,East,94,0.0,2.0,94,0.03,,,0.08,83.000000,,2013-03-09 23:42:00,
2013-03-09 14:52:00,36.0,34.0,-100.00,East,94,0.0,2.0,94,0.03,,,0.08,83.000000,,2013-03-09 23:52:00,
2013-03-09 15:01:00,36.0,34.0,-100.00,East,94,0.0,2.0,94,0.03,,,0.08,83.000000,,2013-03-10 00:01:00,
2013-03-09 15:11:00,36.0,34.0,-100.00,East,94,0.0,2.0,94,0.03,,,0.08,83.000000,,2013-03-10 00:11:00,
2013-03-09 15:21:00,36.0,34.0,-100.00,East,94,0.0,2.0,94,0.03,,,0.08,83.000000,,2013-03-10 00:21:00,
2013-03-09 15:43:00,34.0,33.0,-100.00,SE,130,1.0,2.0,96,-99.99,,,0.05,59.000000,,2013-03-10 00:43:00,
2013-03-09 15:52:00,34.0,33.0,-100.00,SE,130,1.0,2.0,96,-99.99,,,0.05,59.000000,,2013-03-10 00:52:00,
2013-03-09 16:01:00,34.0,33.0,-100.00,SE,130,1.0,2.0,96,-99.99,,,0.05,59.000000,,2013-03-10 01:01:00,
2013-03-09 16:11:00,34.0,33.0,-100.00,SE,130,1.0,2.0,96,-99.99,,,0.05,59.000000,,2013-03-10 01:11:00,
2013-03-09 16:21:00,34.0,33.0,-100.00,SE,130,1.0,2.0,96,-99.99,,,0.05,59.000000,,2013-03-10 01:21:00,
2013-03-09 16:42:00,32.0,32.0,-100.00,SE,144,0.0,1.0,98,-99.99,,,-99.99,38.000000,,2013-03-10 01:42:00,
2013-03-09 16:52:00,32.0,32.0,-100.00,SE,144,0.0,1.0,98,-99.99,,,-99.99,38.000000,,2013-03-10 01:52:00,
2013-03-09 17:01:00,32.0,32.0,-100.00,SE,144,0.0,1.0,98,-99.99,,,-99.99,38.000000,,2013-03-10 02:01:00,
2013-03-09 17:11:00,32.0,32.0,-100.00,SE,144,0.0,1.0,98,-99.99,,,-99.99,38.000000,,2013-03-10 02:11:00,
2013-03-09 17:22:00,32.0,32.0,-100.00,SE,144,0.0,1.0,98,-99.99,,,-99.99,38.000000,,2013-03-10 02:22:00,
2013-03-09 17:42:00,32.0,32.0,-100.00,NNE,21,0.0,0.0,98,-99.99,,,-99.99,16.000000,,2013-03-10 02:42:00,
2013-03-09 17:52:00,32.0,32.0,-100.00,NNE,21,0.0,0.0,98,-99.99,,,-99.99,16.000000,,2013-03-10 02:52:00,
2013-03-09 18:01:00,32.0,32.0,-100.00,NNE,21,0.0,0.0,98,-99.99,,,-99.99,16.000000,,2013-03-10 03:01:00,
2013-03-09 18:11:00,32.0,32.0,-100.00,NNE,21,0.0,0.0,98,-99.99,,,-99.99,16.000000,,2013-03-10 03:11:00,
2013-03-09 18:21:00,32.0,32.0,-100.00,NNE,21,0.0,0.0,98,-99.99,,,-99.99,16.000000,,2013-03-10 03:21:00,
2013-03-09 18:42:00,32.0,32.0,-100.00,North,7,0.0,0.0,99,-99.99,,,0.00,1.000000,,2013-03-10 03:42:00,
2013-03-09 18:52:00,32.0,32.0,-100.00,North,7,0.0,0.0,99,-99.99,,,0.00,1.000000,,2013-03-10 03:52:00,
2013-03-09 19:01:00,32.0,32.0,-100.00,North,7,0.0,0.0,99,-99.99,,,0.00,1.000000,,2013-03-10 04:01:00,
2013-03-09 19:11:00,32.0,32.0,-100.00,North,7,0.0,0.0,99,-99.99,,,0.00,1.000000,,2013-03-10 04:11:00,
2013-03-09 19:21:00,32.0,32.0,-100.00,North,7,0.0,0.0,99,-99.99,,,0.00,1.000000,,2013-03-10 04:21:00,
2013-03-09 19:42:00,32.0,32.0,-100.00,NNE,13,0.0,0.0,100,0.00,,,0.00,0.000000,,2013-03-10 04:42:00,
2013-03-09 19:52:00,32.0,32.0,-100.00,NNE,13,0.0,0.0,100,0.00,,,0.00,0.000000,,2013-03-10 04:52:00,
2013-03-09 20:01:00,32.0,32.0,-100.00,NNE,13,0.0,0.0,100,0.00,,,0.00,0.000000,,2013-03-10 05:01:00,
2013-03-09 20:11:00,32.0,32.0,-100.00,NNE,13,0.0,0.0,100,0.00,,,0.00,0.000000,,2013-03-10 05:11:00,
2013-03-09 20:21:00,32.0,32.0,-100.00,NNE,13,0.0,0.0,100,0.00,,,0.00,0.000000,,2013-03-10 05:21:00,
2013-03-09 20:42:00,32.0,32.0,-100.00,NNE,16,0.0,0.0,100,0.00,,,0.00,0.000000,,2013-03-10 05:42:00,
2013-03-09 20:52:00,32.0,32.0,-100.00,NNE,16,0.0,0.0,100,0.00,,,0.00,0.000000,,2013-03-10 05:52:00,
2013-03-09 21:01:00,32.0,32.0,-100.00,NNE,16,0.0,0.0,100,0.00,,,0.00,0.000000,,2013-03-10 06:01:00,
2013-03-09 21:11:00,32.0,32.0,-100.00,NNE,16,0.0,0.0,100,0.00,,,0.00,0.000000,,2013-03-10 06:11:00,
2013-03-09 21:21:00,32.0,32.0,-100.00,NNE,16,0.0,0.0,100,0.00,,,0.00,0.000000,,2013-03-10 06:21:00,
2013-03-09 21:42:00,32.0,32.0,-100.00,North,7,0.0,0.0,100,0.00,,,0.00,0.000000,,2013-03-10 06:42:00,
2013-03-09 21:52:00,32.0,32.0,-100.00,North,7,0.0,0.0,100,0.00,,,0.00,0.000000,,2013-03-10 06:52:00,
2013-03-09 22:01:00,32.0,32.0,-100.00,North,7,0.0,0.0,100,0.00,,,0.00,0.000000,,2013-03-10 07:01:00,
2013-03-09 22:11:00,32.0,32.0,-100.00,North,7,0.0,0.0,100,0.00,,,0.00,0.000000,,2013-03-10 07:11:00,
2013-03-09 22:21:00,32.0,32.0,-100.00,North,7,0.0,0.0,100,0.00,,,0.00,0.000000,,2013-03-10 07:21:00,
2013-03-09 22:42:00,32.0,32.0,-100.00,NNE,12,0.0,0.0,100,0.00,,,0.00,0.000000,,2013-03-10 07:42:00,
2013-03-09 22:52:00,32.0,32.0,-100.00,NNE,12,0.0,0.0,100,0.00,,,0.00,0.000000,,2013-03-10 07:52:00,
2013-03-09 23:01:00,32.0,32.0,-100.00,NNE,12,0.0,0.0,100,0.00,,,0.00,0.000000,,2013-03-10 08:01:00,
2013-03-09 23:11:00,32.0,32.0,-100.00,NNE,12,0.0,0.0,100,0.00,,,0.00,0.000000,,2013-03-10 08:11:00,
2013-03-09 23:21:00,32.0,32.0,-100.00,NNE,12,0.0,0.0,100,0.00,,,0.00,0.000000,,2013-03-10 08:21:00,
2013-03-09 23:51:00,32.0,32.0,-100.00,NNE,16,0.0,0.0,100,0.00,,,0.00,0.000000,,2013-03-10 08:51:00,